AO-07 1 07530U 74089B 22195.41297359 -.00000047 00000-0 -43590-5 0 9991 2 07530 101.9053 175.3693 0012278 352.3827 162.7398 12.53655809180841 UO-11 1 14781U 84021B 22195.42766808 .00000736 00000-0 95113-4 0 9995 2 14781 97.6183 181.6341 0007157 226.1055 133.9569 14.83712748 44045 LO-19 1 20442U 90005G 22195.33086956 .00000083 00000-0 46864-4 0 9998 2 20442 98.7953 160.6051 0012909 89.7941 270.4722 14.33069948696959 HUBBLE 1 20580U 90037B 22195.78321483 .00002376 00000-0 12920-3 0 9994 2 20580 28.4712 347.7002 0002457 336.4849 126.1474 15.10665367570613 MET-2/21 1 22782U 93055A 22195.38878244 .00000008 00000-0 -54962-5 0 9996 2 22782 82.5499 352.8572 0020967 272.1620 113.9225 13.83857081457739 AO-27 1 22825U 93061C 22195.51946650 .00000065 00000-0 43124-4 0 9992 2 22825 98.8853 227.1271 0007984 340.2617 19.8255 14.30180199502020 IO-26 1 22826U 93061D 22195.04652051 .00000093 00000-0 53476-4 0 9992 2 22826 98.8796 226.5218 0008301 327.0158 33.0505 14.30526811502210 FO-29 1 24278U 96046B 22195.34796837 .00000015 00000-0 52392-4 0 9995 2 24278 98.5151 215.3401 0349696 213.3784 144.4867 13.53117326279245 NOAA-15 1 25338U 98030A 22195.78186916 .00000151 00000-0 81241-4 0 9993 2 25338 98.6424 224.9580 0009725 212.2650 147.7936 14.26149803257163 GO-32 1 25397U 98043D 22195.34452141 .00000030 00000-0 32806-4 0 9999 2 25397 98.8189 145.8858 0002118 56.1285 304.0094 14.23761247247256 ISS 1 25544U 98067A 22196.04614001 .00006953 00000-0 12990-3 0 9993 2 25544 51.6404 198.6098 0005128 12.3596 27.6338 15.49953294349506 NO-44 1 26931U 01043C 22195.36582383 .00000077 00000-0 60970-4 0 9996 2 26931 67.0522 348.9315 0007258 259.9562 100.0720 14.30716002 85252 SO-50 1 27607U 02058C 22195.55580222 .00000509 00000-0 90252-4 0 9991 2 27607 64.5532 218.9627 0079772 289.2137 70.0346 14.76161607 52587 CO-55 1 27844U 03031E 22195.29658359 .00000211 00000-0 11416-3 0 9998 2 27844 98.6780 202.5768 0010485 30.9038 329.2755 14.22466254987683 CO-57 1 27848U 03031J 22195.26794493 .00000175 00000-0 98726-4 0 9998 2 27848 98.6825 203.0627 0010607 44.2046 315.9978 14.22021516987496 RS-22 1 27939U 03042A 22195.87827404 .00000729 00000-0 13759-3 0 9994 2 27939 98.1952 336.5963 0014130 119.8771 240.3843 14.67390328 5062 NOAA-18 1 28654U 05018A 22195.75649194 .00000155 00000-0 10790-3 0 9994 2 28654 98.9483 266.1699 0013236 252.6356 107.3368 14.12752832883924 CO-58 1 28895U 05043F 22195.30408798 .00000765 00000-0 15352-3 0 9999 2 28895 98.1099 326.2735 0017741 59.8213 300.4744 14.64384178891349 Falconsat-3 1 30776U 07006E 22195.10971710 .00035706 00000-0 51278-3 0 9998 2 30776 35.4313 85.4334 0004595 308.2509 51.7810 15.55073491853739 CO-65 1 32785U 08021C 22195.76948066 .00001597 00000-0 17237-3 0 9996 2 32785 97.6587 165.7557 0013629 137.6808 222.5463 14.89666571770628 AAUSAT2 1 32788U 08021F 22195.69865284 .00004483 00000-0 38721-3 0 9999 2 32788 97.5335 180.0520 0012152 39.7211 320.4899 14.97660825772618 DO-64 1 32789U 08021G 22195.51334605 .00009714 00000-0 53299-3 0 9998 2 32789 97.3367 220.8400 0008964 219.9403 140.1171 15.14317982776025 CO-66 1 32791U 08021J 22195.39034612 .00002373 00000-0 23450-3 0 9992 2 32791 97.6120 170.8529 0014321 98.9085 261.3757 14.92778095771212 RS-30 1 32953U 08025A 22195.82325634 .00000024 00000-0 10000-3 0 9999 2 32953 82.5031 166.9172 0018654 197.3622 162.6824 12.43111696641733 PRISM 1 33493U 09002B 22195.42993007 .00004394 00000-0 35764-3 0 9994 2 33493 98.2250 183.5317 0017414 86.6992 273.6222 14.99989179733020 NOAA-19 1 33591U 09005A 22195.83174276 .00000136 00000-0 98188-4 0 9990 2 33591 99.1461 230.5413 0014929 110.1838 250.0940 14.12587633692319 SRMSAT 1 37841U 11058D 22195.44273679 .00000345 00000-0 44573-4 0 9998 2 37841 19.9724 91.7742 0011735 280.3519 238.9806 14.10760321555053 HRBE 1 37855U 11061F 22195.22785749 .00005848 00000-0 25787-3 0 9997 2 37855 101.7129 328.4805 0152109 342.0929 17.4961 15.12749546585288 RS-40 1 38735U 12041C 22195.54904663 .00000003 00000-0 -50368-4 0 9990 2 38735 82.4756 248.5950 0016161 315.3090 44.6685 12.42586273451888 ZACUBE-1 1 39417U 13066B 22195.36734085 .00001783 00000-0 22293-3 0 9995 2 39417 97.6377 165.6520 0056672 317.7640 41.9215 14.82427329467117 Delfi-N3xt 1 39428U 13066N 22195.56396477 .00001429 00000-0 22650-3 0 9992 2 39428 97.8145 128.7594 0116633 190.4975 169.3795 14.69262810462510 GOMX-1 1 39430U 13066Q 22195.79540139 .00001243 00000-0 23007-3 0 9997 2 39430 97.8087 101.4327 0148359 319.2148 39.8028 14.60252183460288 LO-74 1 39440U 13066AA 22195.35017416 .00001883 00000-0 26012-3 0 9996 2 39440 97.7273 151.7779 0079937 45.0041 315.7610 14.77075831464250 AO-73 1 39444U 13066AE 22195.16191560 .00002010 00000-0 24420-3 0 9996 2 39444 97.6251 167.8649 0055197 306.2807 53.3315 14.83525765465483 SPROUT 1 39770U 14029E 22195.76268376 .00005896 00000-0 59940-3 0 9994 2 39770 97.9444 312.8747 0008160 7.6261 352.5178 14.91153614441739 DTUSAT-2 1 40030U 14033W 22195.77686531 .00002137 00000-0 22709-3 0 9996 2 40030 97.9377 128.6558 0010918 331.5365 28.5255 14.90047765438220 EO-80 1 40032U 14033Y 22195.81676929 .00002069 00000-0 22026-3 0 9999 2 40032 97.9380 128.7095 0010954 332.3792 27.6842 14.90018135438216 HODOYOSHI-1 1 40299U 14070B 22195.79480199 .00004651 00000-0 17696-3 0 9990 2 40299 97.2430 263.1193 0013453 47.1321 24.7740 15.27154992427237 FIREBIRD FU3 1 40377U 15003B 22195.43959496 .00013250 00000-0 39126-3 0 9993 2 40377 99.0968 66.3813 0097699 294.0072 65.0960 15.30470108412546 FIREBIRD FU4 1 40378U 15003C 22195.85568589 .00013842 00000-0 40720-3 0 9998 2 40378 99.0970 67.1070 0097585 292.2196 66.8710 15.30580568412628 GRIFEX 1 40379U 15003D 22195.84139256 .00008472 00000-0 29806-3 0 9998 2 40379 99.1085 52.7062 0114068 335.8864 23.7051 15.23652156411804 XW-2A 1 40903U 15049E 22195.77464135 .00022639 00000-0 34431-3 0 9991 2 40903 97.1781 254.3618 0009674 31.1535 107.8063 15.54495608383505 XW-2C 1 40906U 15049H 22195.80478189 .00004788 00000-0 22966-3 0 9997 2 40906 97.4922 199.0004 0011972 263.8291 213.6038 15.19308896377075 XW-2D 1 40907U 15049J 22195.76067231 .00005410 00000-0 25408-3 0 9992 2 40907 97.4907 198.9604 0011182 258.4133 276.5188 15.19989881377119 LILACSAT-2 1 40908U 15049K 22195.82502493 .00002513 00000-0 13441-3 0 9999 2 40908 97.5160 196.1377 0013530 283.6690 197.9747 15.15925257376632 XW-2E 1 40909U 15049L 22195.79408829 .00008471 00000-0 35282-3 0 9990 2 40909 97.4637 203.5819 0010110 234.6319 247.2835 15.23935049377570 XW-2F 1 40910U 15049M 22195.79764181 .00008375 00000-0 35427-3 0 9992 2 40910 97.4723 202.7264 0011102 235.9831 249.4397 15.23405417377341 XW-2B 1 40911U 15049N 22195.78777450 .00005341 00000-0 25175-3 0 9994 2 40911 97.4905 199.5824 0011029 258.3136 276.4054 15.19875222377007 DCBB 1 40912U 15049P 22195.82022640 .00009844 00000-0 37848-3 0 9996 2 40912 97.4352 207.0949 0011835 197.0286 337.9235 15.26553648377925 TW-1A 1 40928U 15051D 22195.81389307 .00046014 00000-0 53149-3 0 9993 2 40928 97.0360 218.2606 0004368 279.9925 255.0957 15.61763489382500 IO-86 1 40931U 15052B 22195.80177095 .00001071 00000-0 59780-4 0 9998 2 40931 6.0027 334.0283 0012456 198.1197 161.8538 14.76830785367390 AO-85 1 40967U 15058D 22194.44376820 .00002264 00000-0 25072-3 0 4197 2 40967 64.7755 352.9399 0191901 192.1387 167.5115 14.77496165 64505 ATHENOXAT-1 1 41168U 15077C 22195.49097590 .00012633 00000-0 51008-3 0 9994 2 41168 14.9854 249.9451 0008397 260.3131 137.8991 15.21534570364431 ChubuSat-2 1 41338U 16012B 22195.39092087 .00001589 00000-0 11344-3 0 9995 2 41338 31.0015 212.3686 0013258 60.0298 300.1653 15.01457518351535 ChubuSat-3 1 41339U 16012C 22195.71477321 .00001464 00000-0 10380-3 0 9991 2 41339 31.0105 207.2335 0012838 70.2907 289.9131 15.01530180351580 Horyu-4 1 41340U 16012D 22195.66025989 .00002928 00000-0 20337-3 0 9995 2 41340 31.0029 185.3551 0013142 111.7492 248.4544 15.03450290351822 e-st@r-II 1 41459U 16025D 22195.72489801 .00015921 00000-0 67830-3 0 9990 2 41459 98.1868 2.9059 0144691 176.4269 183.8081 15.13966417341628 AAUSAT4 1 41460U 16025E 22195.73293217 .00026269 00000-0 98007-3 0 9994 2 41460 98.1788 9.3660 0124927 151.7844 209.0522 15.20282430342081 LO-87 1 41557U 16033B 22195.76626200 .00011570 00000-0 34010-3 0 9998 2 41557 97.3899 293.5206 0008935 279.6305 201.1387 15.35228765341579 NuSat2 1 41558U 16033C 22195.76054738 .00011322 00000-0 31349-3 0 9997 2 41558 97.4104 299.3669 0008519 267.1421 216.2126 15.37115031341847 Lapan A3 1 41603U 16040E 22195.75242071 .00001357 00000-0 64487-4 0 9991 2 41603 97.2047 231.5899 0014824 67.1024 74.3318 15.20736008336180 Pratham 1 41783U 16059A 22195.43612037 .00000433 00000-0 91860-4 0 9997 2 41783 97.9117 235.9080 0034872 88.9499 271.5698 14.63378378309579 TY-1 1 41844U 16066D 22195.82027867 .00011897 00000-0 39853-3 0 9996 2 41844 97.3877 207.7062 0012672 181.6550 304.3907 15.31009004315796 CAS-2T 1 41847U 16066G 22195.46908034 .00001259 00000-0 19654-3 0 9991 2 41847 98.5497 260.1097 0364708 128.9858 234.4418 14.38633644298234 EO-88 1 42017U 17008BX 22195.48760356 .00014869 00000-0 43467-3 0 9993 2 42017 97.2678 261.2195 0006366 138.0309 222.1424 15.35357857301220 CAS-4B 1 42759U 17034B 22195.47369089 .00002212 00000-0 13918-3 0 9999 2 42759 43.0154 183.7466 0007735 95.8127 45.8124 15.12053812280445 CAS-4A 1 42761U 17034D 22195.82480024 .00002373 00000-0 14802-3 0 9995 2 42761 43.0154 180.5769 0008010 101.5267 327.2728 15.12142974280508 NIUSat 1 42766U 17036B 22195.33632750 .00007240 00000-0 27751-3 0 9998 2 42766 97.1996 232.2008 0012169 225.3591 134.6657 15.26732536280902 Aalto 1 1 42775U 17036L 22195.65005149 .00006374 00000-0 25077-3 0 9995 2 42775 97.1952 232.3810 0011144 223.0801 136.9566 15.25924447280926 URSA MAIOR 1 42776U 17036M 22195.35861423 .00006482 00000-0 25055-3 0 9994 2 42776 97.1965 232.8555 0010821 222.4789 137.5614 15.26512001280911 Max Valier Sat 1 42778U 17036P 22195.64621885 .00007387 00000-0 27794-3 0 9991 2 42778 97.2027 235.8162 0009478 220.4867 139.5668 15.27370298281059 Pegasus 1 42784U 17036V 22195.66470755 .00009984 00000-0 35261-3 0 9991 2 42784 97.1966 236.7204 0008863 220.7897 139.2681 15.29368300281175 NUDATSat 1 42787U 17036Y 22195.56412532 .00018135 00000-0 54380-3 0 9993 2 42787 97.2016 240.9254 0007984 202.5176 157.5750 15.34498734281258 SUCHAI 1 1 42788U 17036Z 22195.36695829 .00011353 00000-0 37819-3 0 9997 2 42788 97.1975 238.1373 0008298 214.2895 145.7812 15.31237675281306 SKCUBE 1 42789U 17036AA 22195.37719513 .00010404 00000-0 35554-3 0 9996 2 42789 97.1972 237.5837 0008309 215.9120 144.1564 15.30433965281197 VZLUSAT 1 1 42790U 17036AB 22195.37854260 .00016419 00000-0 49518-3 0 9994 2 42790 97.1999 240.7067 0007622 203.3247 156.7652 15.34341464281370 VENTA 1 1 42791U 17036AC 22195.35495054 .00008971 00000-0 31304-3 0 9993 2 42791 97.1974 237.4277 0008029 217.1936 142.8750 15.29797566281175 Robusta 1B 1 42792U 17036AD 22195.38903556 .00011715 00000-0 39331-3 0 9996 2 42792 97.1971 238.1769 0007889 215.2098 144.8623 15.30982076281241 D-SAT 1 42794U 17036AF 22195.83122081 .00003370 00000-0 28681-3 0 9998 2 42794 97.4506 199.7964 0122626 354.4155 5.5689 14.92763498275594 TechnoSat 1 42829U 17042E 22195.38127027 .00000974 00000-0 10133-3 0 9999 2 42829 97.4186 47.9455 0012341 278.8317 81.1505 14.91917015272103 QIKCOM-1 1 42983U 98067NF 22195.83153724 .00488756 13920-3 40923-3 0 9995 2 42983 51.6231 34.3799 0004326 275.1891 84.8631 16.13128188269331 AO-91 1 43017U 17073E 22195.65949439 .00004167 00000-0 31250-3 0 9993 2 43017 97.6723 88.7384 0249738 98.6898 264.2689 14.81542238251148 PICSAT 1 43132U 18004X 22195.47405518 .00012265 00000-0 39896-3 0 9993 2 43132 97.3719 271.7126 0005849 256.1395 103.9196 15.32011576250540 AO-92 1 43137U 18004AC 22195.44042018 .00008780 00000-0 30650-3 0 9993 2 43137 97.3683 270.3597 0005902 262.2513 97.8057 15.29815981250479 TianYi 2 1 43155U 18008A 22195.77665853 .00006628 00000-0 35046-3 0 9994 2 43155 97.3511 253.2985 0017479 53.9751 82.4914 15.15658299247415 Zhou Enlai 1 43156U 18008B 22195.79608197 .00006730 00000-0 35822-3 0 9991 2 43156 97.3562 253.2009 0014808 55.8246 82.4538 15.15456197247349 TianYi 6 1 43158U 18008D 22195.72861096 .00005562 00000-0 30596-3 0 9990 2 43158 97.3523 251.0591 0014412 56.1020 61.6791 15.14362816247236 S-Net D 1 43186U 18014G 22195.54907190 .00002162 00000-0 18797-3 0 9996 2 43186 97.6560 100.7702 0010156 197.3796 162.7080 14.97986670242974 S-Net B 1 43187U 18014H 22195.48244003 .00002191 00000-0 19038-3 0 9998 2 43187 97.6558 100.6552 0010134 197.4939 162.5936 14.97984656242969 S-Net A 1 43188U 18014J 22195.48272944 .00002185 00000-0 18991-3 0 9994 2 43188 97.6562 100.7202 0010135 197.4524 162.6351 14.97984094242967 S-Net C 1 43189U 18014K 22195.68387301 .00002207 00000-0 19177-3 0 9993 2 43189 97.6557 100.8410 0010115 196.5287 163.5607 14.97982959241543 FMN 1 1 43192U 18015A 22195.81302646 .00026652 00000-0 67825-3 0 9995 2 43192 97.5374 341.6863 0009215 288.8308 209.1571 15.39523476247655 Shaonian Xing 1 43199U 18015H 22195.83370370 .00014978 00000-0 44290-3 0 9992 2 43199 97.5165 336.6522 0011315 306.9360 193.6562 15.34959875247647 SurfSat 1 43614U 18070B 22195.84518460 .00038324 00000-0 52784-3 0 9998 2 43614 93.0301 110.3987 0006538 264.1886 95.8632 15.57095475215326 CP-7 DAVE 1 43615U 18070C 22195.23395341 .00033676 00000-0 48992-3 0 9994 2 43615 93.0290 109.9660 0007105 275.0713 84.9739 15.55622343215197 ELFIN-B 1 43616U 18070D 22195.73526111 .00120511 00000-0 90099-3 0 9991 2 43616 93.0184 111.5798 0004572 210.9541 149.1462 15.72329548215639 ELFIN-A 1 43617U 18070E 22195.50158343 .00144828 00000-0 94389-3 0 9998 2 43617 93.0256 112.9000 0005033 191.7634 168.3523 15.75474335215654 CubeBel-1 1 43666U 18083E 22195.71875164 .00008114 00000-0 34096-3 0 9992 2 43666 97.4186 224.0979 0011442 232.9534 220.1461 15.23631458205635 Changshagaoxin 1 43669U 18083H 22195.72745900 .00007684 00000-0 33877-3 0 9997 2 43669 97.4130 220.0003 0008121 227.8802 223.5593 15.22044257205459 Ten-Koh 1 43677U 18084G 22195.58985614 .00001344 00000-0 14106-3 0 9990 2 43677 97.9676 325.8921 0015879 177.0837 183.0476 14.91155277201729 PO-101 1 43678U 18084H 22195.67456041 .00001168 00000-0 12033-3 0 9999 2 43678 97.9740 329.2637 0009706 187.4455 172.6629 14.92211689201913 IRVINE 01 1 43693U 18088D 22195.71596256 .00033021 00000-0 83674-3 0 9990 2 43693 85.0298 292.3397 0010575 16.4539 343.7054 15.39508931204411 QO-100 1 43700U 18090A 22195.48911994 .00000136 00000-0 00000-0 0 9996 2 43700 0.0231 51.4949 0001580 93.2598 349.4306 1.00271274 13304 Reaktor Hello World 1 43743U 18096AA 22195.72745368 .00010582 00000-0 31786-3 0 9990 2 43743 97.3529 275.4876 0013392 325.9990 34.0394 15.34521005202140 MinXSS-2 1 43758U 18099A 22195.44529161 .00002692 00000-0 23542-3 0 9993 2 43758 97.6224 262.7123 0015394 170.5347 189.6168 14.97486428197145 AO-95 1 43770U 18099N 22195.13561511 .00003195 00000-0 28535-3 0 9994 2 43770 97.6200 260.7926 0014255 178.5691 181.5574 14.96543368197000 RANGE-B 1 43772U 18099Q 22195.45285195 .00003170 00000-0 27852-3 0 9996 2 43772 97.6300 262.8399 0014278 166.4750 193.6857 14.97194228197070 RANGE-A 1 43773U 18099R 22195.46645255 .00002254 00000-0 20505-3 0 9995 2 43773 97.6124 259.9546 0013725 165.4168 194.7452 14.96110859197030 MOVE-II 1 43780U 18099Y 22195.47264563 .00004888 00000-0 41918-3 0 9999 2 43780 97.6242 262.3083 0013342 170.6768 189.4705 14.97900059197102 SNUSat 2 1 43782U 18099AA 22195.44717395 .00002142 00000-0 19230-3 0 9997 2 43782 97.6193 261.5657 0012915 165.0611 195.0995 14.96698021197079 SnugLite 1 43784U 18099AC 22195.81510377 .00002434 00000-0 21644-3 0 9997 2 43784 97.6168 261.5618 0014888 169.9474 190.2049 14.96932775197154 ITASat 1 1 43786U 18099AE 22195.46069694 .00002537 00000-0 22682-3 0 9998 2 43786 97.6219 262.0425 0015265 171.6178 188.5301 14.96672263197093 EAGLET 1 1 43790U 18099AJ 22195.41972937 .00001533 00000-0 13857-3 0 9990 2 43790 97.6222 262.5391 0013097 173.9647 186.1735 14.96837710196821 ESEO 1 43792U 18099AL 22195.49859162 .00000411 00000-0 41415-4 0 9990 2 43792 97.6170 261.7952 0013222 172.6377 187.5042 14.96233705196870 CSIM 1 43793U 18099AM 22195.43375363 .00003136 00000-0 26613-3 0 9990 2 43793 97.6244 263.1919 0012503 166.2606 193.8959 14.98577064196921 Astrocast 0.1 1 43798U 18099AS 22195.45807315 .00003552 00000-0 30701-3 0 9999 2 43798 97.6220 263.0748 0013084 152.7034 207.4878 14.97766562197159 JO-97 1 43803U 18099AX 22195.46937507 .00003495 00000-0 30652-3 0 9995 2 43803 97.6187 261.8135 0015159 169.4358 190.7185 14.97194822197118 Suomi 100 1 43804U 18099AY 22195.42210897 .00001887 00000-0 16819-3 0 9990 2 43804 97.6187 261.6851 0014889 170.7949 189.3548 14.97094193197119 Al Farabi 2 1 43805U 18099AZ 22195.86660328 .00003533 00000-0 30596-3 0 9995 2 43805 97.6190 262.6257 0014804 167.9425 192.2161 14.97682258197208 CHOMPTT 1 43855U 18104G 22195.82154437 .00008389 00000-0 30518-3 0 9990 2 43855 85.0336 32.8963 0016979 131.1089 229.1626 15.27930836198907 ISAT 1 43879U 18111D 22195.18177054 .00002074 00000-0 17983-3 0 9999 2 43879 97.6636 100.3113 0011275 227.8243 132.2023 14.98126314193671 UWE-4 1 43880U 18111E 22195.44948122 .00001939 00000-0 16779-3 0 9993 2 43880 97.6667 101.2914 0010461 227.4513 132.5827 14.98279868193744 Sparrow 1 43881U 18111F 22195.79792568 .00002728 00000-0 23312-3 0 9991 2 43881 97.6664 101.8697 0011288 223.2851 136.7486 14.98431490191806 Lume 1 1 43908U 18111AJ 22195.11860574 .00008983 00000-0 30270-3 0 9990 2 43908 97.1886 82.0907 0017697 345.1799 14.8922 15.30812906197478 FO-99 1 43937U 19003F 22195.35948999 .00011684 00000-0 38657-3 0 9996 2 43937 97.1280 227.6689 0021915 61.4975 298.8470 15.31244612194095 MYSat 1 1 44045U 18092F 22195.57108971 .00046447 00000-0 63479-3 0 9991 2 44045 51.6317 297.1433 0007085 215.3837 144.6685 15.56948237192095 AstroCast 0.2 1 44083U 19018F 22195.69139829 .00012975 00000-0 48582-3 0 9998 2 44083 97.3202 254.0396 0010970 39.4850 320.7187 15.27362143182642 AISTechSat 3 1 44103U 19018AB 22195.40882668 .00007666 00000-0 28319-3 0 9993 2 44103 97.3069 254.1262 0013032 47.3939 312.8398 15.27931498182761 AISat 1 1 44104U 19018AC 22195.53823129 .00006825 00000-0 18954-3 0 9995 2 44104 97.3965 278.7821 0052620 38.0185 322.4753 15.35806096183752 Prox-1 1 44339U 19036A 22195.82816932 .00003504 00000-0 74637-3 0 9992 2 44339 24.0016 20.6487 0010527 157.5115 202.5839 14.55187189162439 Oculus-ASR 1 44348U 19036K 22195.51623516 .00041055 -61447-5 36299-3 0 9995 2 44348 28.5048 5.0074 0229833 256.2160 101.2763 15.39570986168713 Armadillo 1 44352U 19036P 22195.53572778 .00212630 73242-5 69808-3 0 9991 2 44352 28.5190 277.3622 0102622 37.1808 323.5857 15.80924642169532 NO-104 1 44354U 19036R 22195.52959695 .00041597 -61379-5 34665-3 0 9993 2 44354 28.5274 350.2133 0219812 276.7505 80.8129 15.42637130168861 Move-IIb 1 44398U 19038N 22195.56826381 .00013108 00000-0 62382-3 0 9994 2 44398 97.6295 165.1603 0023296 36.5352 323.7469 15.19051865167151 SONATE 1 44400U 19038Q 22195.60768060 .00004738 00000-0 25676-3 0 9996 2 44400 97.6413 164.2337 0024952 42.1800 318.1346 15.14827301167043 BeeSat 9 1 44412U 19038AC 22195.36318165 .00007191 00000-0 36326-3 0 9999 2 44412 97.6363 164.8516 0021610 45.5131 314.7864 15.17191885166777 JAISAT-1 1 44419U 19038F 22195.34049335 .00007900 00000-0 39356-3 0 9998 2 44419 97.6368 165.6870 0020482 43.0511 317.2320 15.17665491167137 LightSail-2 1 44420U 19036AC 22195.66924912 .00073068 00000-0 87689-2 0 9995 2 44420 23.9994 312.9185 0012129 291.4967 68.4238 14.82494964161240 Taurus 1 1 44530U 19059C 22195.80211798 .00001631 00000-0 45879-3 0 9992 2 44530 98.5484 294.5787 0014179 43.6482 316.5844 14.47161490149807 Duchifat 3 1 44854U 19089C 22195.57836297 .00003282 00000-0 25670-3 0 9996 2 44854 36.9679 299.5210 0007489 73.3666 286.7931 15.01227542142017 OPS-SAT 1 44878U 19092F 22195.24781756 .00008097 00000-0 37406-3 0 9998 2 44878 97.4793 18.9720 0010966 242.7115 117.3003 15.20402065142268 TO-108 1 44881U 19093C 22195.72539202 .00000505 00000-0 70608-4 0 9991 2 44881 97.8924 274.5433 0016454 96.6984 263.6114 14.81754909138818 FloripaSat 1 1 44885U 19093G 22195.80254520 .00001704 00000-0 21463-3 0 9997 2 44885 97.8965 275.9717 0015877 102.4185 257.8823 14.83223935138908 RS-44 1 44909U 19096E 22195.94525698 .00000023 00000-0 54074-4 0 9997 2 44909 82.5197 212.0111 0216283 255.3711 102.3350 12.79713960119071 BY70-2 1 45857U 20042B 22195.87634229 .00006182 00000-0 82097-3 0 9993 2 45857 97.9546 272.4580 0011001 37.8353 322.3663 14.80097786109512 UPMSat 2 1 46276U 20061E 22195.72416466 .00003545 00000-0 17579-3 0 9998 2 46276 97.3908 265.9268 0003167 87.4158 272.7438 15.18359801103010 AmicalSat 1 46287U 20061R 22195.46633472 .00005076 00000-0 29187-3 0 9998 2 46287 97.4456 264.5617 0003180 151.1025 209.0382 15.12909048102558 SALSAT 1 46495U 20068K 22195.29772155 .00001797 00000-0 13217-3 0 9992 2 46495 97.7311 136.6093 0016314 180.2792 179.8427 15.04607222 98228 BY70-3 1 46839U 20079N 22195.75844133 .00021098 00000-0 48019-3 0 9997 2 46839 97.1971 267.5090 0004868 209.1570 273.6690 15.42975566 94450 CAPE 3 1 47309U 21002A 22195.16725434 .00006976 00000-0 28463-3 0 9993 2 47309 60.6831 264.0400 0025449 356.0079 4.0802 15.25146138 82526 AO-109 1 47311U 21002C 22195.21069632 .00006429 00000-0 26009-3 0 9990 2 47311 60.6846 261.4958 0021438 358.3118 1.7894 15.25632403 82549 MiTEE 1 1 47314U 21002F 22195.56696184 .00013891 00000-0 46842-3 0 9997 2 47314 60.6815 252.8107 0019000 350.0582 10.0130 15.30870461 82746 ExoCube 2 1 47319U 21002L 22195.61039104 .00006108 00000-0 25069-3 0 9992 2 47319 60.6829 261.1141 0022881 359.0031 1.1007 15.25197151 82551 UVSQ-SAT 1 47438U 21006AB 22195.41139331 .00005101 00000-0 26894-3 0 9998 2 47438 97.4355 253.8698 0012185 173.2549 186.8850 15.15948876 81368 YUSAT 1 1 47439U 21006AC 22195.70346202 .00006924 00000-0 35880-3 0 9997 2 47439 97.4362 254.2718 0011993 172.2729 187.8691 15.16432838 81417 SOMP 2b 1 47445U 21006AJ 22195.41541936 .00005137 00000-0 27341-3 0 9991 2 47445 97.4328 253.5171 0011713 177.1027 183.0276 15.15615617 81353 IDEASSat 1 47458U 21006AX 22195.73037233 .00005190 00000-0 27751-3 0 9994 2 47458 97.4416 254.3472 0010967 174.0946 186.0418 15.15456082 81398 CubeSX-Sirius-HSE 1 47951U 21022V 22195.70844780 .00003811 00000-0 25282-3 0 9995 2 47951 97.5289 94.6568 0022775 55.3730 4.5100 15.07639031 72107 CubeSX-HSE 1 47952U 21022W 22195.69330368 .00003395 00000-0 22539-3 0 9995 2 47952 97.5287 94.6635 0022777 54.5004 357.7559 15.07690433 72102 KSU-Cubesat 1 47954U 21022Y 22195.71013422 .00004299 00000-0 28236-3 0 9993 2 47954 97.5290 94.7909 0022255 55.0535 305.2779 15.07946557 71831 GRBAlpha 1 47959U 21022AD 22195.69689809 .00003441 00000-0 22826-3 0 9990 2 47959 97.5294 94.7067 0022611 55.2590 28.8624 15.07714846 70924 Orbicraft-Zorkiy 1 47960U 21022AE 22195.80209406 .00004780 00000-0 31407-3 0 9998 2 47960 97.5308 94.9522 0021931 54.6282 31.8325 15.07881335 71634 STECCO 1 47962U 21022AG 22195.71737882 .00006542 00000-0 40582-3 0 9996 2 47962 97.5281 95.6117 0017270 49.8688 35.2308 15.09934816 70982 DO-111 1 47963U 21022AH 22195.44745882 .00014985 00000-0 82086-3 0 9991 2 47963 97.5306 96.5023 0018515 44.8770 315.3955 15.14161121 71031 MO-110 1 47964U 21022AJ 22195.47443116 .00007232 00000-0 44307-3 0 9991 2 47964 97.5282 95.6428 0019773 47.0235 313.2648 15.10313853 70966 FEES 1 48082U 21022AL 22195.66081568 .00009043 00000-0 54437-3 0 9990 2 48082 97.5293 95.7649 0016039 44.7216 315.5304 15.10936755 70697 RamSat 1 48850U 98067SL 22195.42072378 .00078056 00000-0 53119-3 0 9995 2 48850 51.6346 179.5087 0003083 71.1505 288.9828 15.74196443 61570 TUBIN 1 48900U 21059X 22195.67632167 .00003390 00000-0 18972-3 0 9990 2 48900 97.5568 324.7638 0010288 19.5449 105.1359 15.14088765 58032 IT-SPINS 1 49017U 21013G 22195.48497964 .00009235 00000-0 35547-3 0 9994 2 49017 51.5965 270.2791 0008133 173.5328 186.5757 15.27038119 57914 LEDSAT 1 49069U 21073D 22195.77363515 .00003202 00000-0 20578-3 0 9999 2 49069 97.5233 268.1239 0026623 197.5238 162.5075 15.08849910 49952 CUTE 1 49263U 21088D 22195.42154199 .00003047 00000-0 22852-3 0 9993 2 49263 97.5859 262.8050 0019313 335.9341 24.0980 15.03264834 43474 Binar-1 1 49272U 98067SR 22195.37097369 .00095730 00000-0 63611-3 0 9991 2 49272 51.6312 183.6404 0006841 44.8502 315.3049 15.74641951 43906 Maya-3 1 49273U 98067SS 22195.66887583 .00354644 59048-4 10310-2 0 9998 2 49273 51.6246 175.0303 0007631 55.5388 304.6339 15.92323559 44045 Maya-4 1 49274U 98067ST 22195.83942232 .00324491 50172-4 10351-2 0 9992 2 49274 51.6276 174.6872 0007247 53.5277 306.6396 15.90549261 44068 CUAVA-1 1 49275U 98067SU 22195.84117524 .00204725 00000-0 95539-3 0 9992 2 49275 51.6285 177.5773 0006956 52.0517 20.1711 15.82142737 43974 TeikyoSat 4 1 49396U 21102B 22195.42997693 .00001138 00000-0 94321-4 0 9991 2 49396 97.5243 252.6381 0014754 158.1201 202.0657 15.00663933 37096 Z-Sat 1 49399U 21102E 22195.80074476 .00000986 00000-0 78001-4 0 9998 2 49399 97.5338 253.8374 0023938 133.1062 227.2172 15.02631355 37198 KOSEN 1 1 49402U 21102H 22195.71084714 .00002980 00000-0 22048-3 0 9994 2 49402 97.5280 253.8823 0023293 126.7530 233.5840 15.03709384 37203 HO-113 1 50466U 21131B 22195.78612511 .00000160 00000-0 66969-4 0 9996 2 50466 98.5804 273.0270 0005736 75.6142 284.5682 14.38507941 28843 Tevel 1 50999U 22002R 22195.79670843 .00006426 00000-0 34535-3 0 9992 2 50999 97.4791 262.4285 0009910 332.1285 123.1005 15.15197430 27561 Grizu-263a 1 51025U 22002AT 22195.44987479 .00010870 00000-0 54705-3 0 9990 2 51025 97.4969 262.8061 0011271 337.0152 23.0576 15.17333244 27530 NO-116 1 51031U 22002AZ 22195.43633332 .00007636 00000-0 39723-3 0 9991 2 51031 97.4927 262.5629 0011746 337.2578 22.8133 15.16271702 27523 IRIS-A 1 51044U 22002BN 22195.70670232 .00003611 00000-0 20444-3 0 9994 2 51044 97.4811 262.0951 0008330 340.9914 19.1005 15.13641308 27530 DELFI-PQ 1 51074U 22002CU 22195.13668034 .00009485 00000-0 47089-3 0 9990 2 51074 97.5051 262.9567 0013324 9.0573 351.0898 15.17826681 27503 SO-115 1 51080U 22002DA 22195.45351464 .00006579 00000-0 33652-3 0 9990 2 51080 97.5067 263.1791 0013266 8.7067 351.4394 15.16906152 27548 SO-114 1 51081U 22002DB 22195.45402337 .00006654 00000-0 34020-3 0 9991 2 51081 97.5058 263.1589 0013560 8.2247 351.9206 15.16910010 27541 OreSat0 1 52017U 22026K 22195.23957662 .00005136 00000-0 27383-3 0 9997 2 52017 97.5015 194.7434 0027226 177.4897 182.6476 15.15301192 18245 Planetum 1 1 52738U 22057G 22195.78314474 .00005282 00000-0 30971-3 0 9998 2 52738 97.5157 309.9921 0009962 81.6514 278.5845 15.12156762 7568 Foresail-1 1 52766U 22057AL 22195.54072862 .00004312 00000-0 24431-3 0 9992 2 52766 97.5252 309.9201 0015042 63.9569 296.3208 15.13442004 7531 SNUGLITE 2 1 52899U 22065F 22195.87716324 .00000510 00000-0 11969-3 0 9990 2 52899 98.0218 346.3434 0007869 180.6023 179.5180 14.58352087 1690 CTIM 1 52950U 22074G 22199.91819290 .00014710 00000-0 61060-3 0 9997 2 52950 45.0022 27.4785 0003985 328.9690 31.1002 15.23779071 2530 /EX